ボアッティーニ彗星

P/2011 Y2 ( Boattini )

English version
Home page
Updated on March 18, 2012

---------------------------------------------------------------------

・ プロフィール

発見日 2011年12月24日
発見光度 19.4等
発見者 A. Boattini (Mount Lemmon)

・ 写真集

・ 軌道要素

Epoch 2012 Mar. 14.0 TT = JDT 2456000.5
T 2012 Mar. 21.69115 TT                                 MPC
q   1.7871853            (2000.0)            P               Q
n   0.06351381     Peri.  131.19243     +0.14941804     -0.98513648
a   6.2214354      Node   310.00930     +0.87084626     +0.17170146
e   0.7127375      Incl.    6.35171     +0.46829590     -0.00497210
P  15.5
From 89 observations 2011 Sept. 4-2012 Mar. 16, mean residual 0".4.

・ 光度変化

        m1 = 15.0 + 5 logΔ + 10.0 log r

---------------------------------------------------------------------

軌道要素はM.P.E.C. 2012-F11に掲載されたものです。
光度グラフはComet for Windowsで作成したものです。

---------------------------------------------------------------------

Copyright(C) Seiichi Yoshida (comet@aerith.net). All rights reserved.